[[{"header":{"parameterUnit":"m.s-1","parameterCategory":1,"la1":30.2991,"la2":30.254,"lo1":-89.0895,"lo2":-89.0444,"dy":0.0017,"dx":0.0017,"nx":28,"ny":28,"refTime":"2024-04-24T21:00:00:Z","depth":0,"parameterNumber":2,"parameterNumberName":"U-component_of_WINDS"},"data":[0,0,0,0,0,0,0,0,0,0,0,0,0,0,0,0,0,0,0,0,0,0,0,0,0,0,0,0,0,0,0,0,0,0,0,0,0,0,0,0,0,0,0,0,0,0,0,0,0,0,0,0,0,0,0,0,0,0,-0.3138,-0.3137,0,-0.3005,-0.3003,-0.3002,-0.2937,-0.2937,-0.2937,-0.2937,-0.28,-0.2796,-0.2793,0,0,0,0,0,0,0,0,0,0,0,0,0,-0.3338,-0.3335,-0.3138,-0.3136,-0.3135,-0.3005,-0.3003,-0.3001,-0.2937,-0.2937,-0.2937,-0.2937,-0.2801,-0.2797,-0.2792,0,0,0,0,0,0,0,0,0,0,0,0,0,-0.3233,-0.3333,-0.3138,-0.3087,-0.3081,-0.3005,-0.3003,-0.3001,-0.2937,-0.2937,-0.2937,-0.2937,-0.2803,-0.2797,-0.2792,-0.2757,0,0,-0.2775,-0.2772,0,0,0,0,0,0,0,0,-0.3239,-0.3225,-0.3096,-0.3091,-0.3084,-0.2988,-0.3023,-0.2919,-0.2937,-0.2992,-0.2937,-0.2937,-0.2862,-0.2852,-0.2827,-0.275,-0.2744,-0.2774,-0.2771,-0.2769,-0.2767,0,0,0,0,0,0,0,-0.3246,-0.3231,-0.3085,-0.3095,-0.3087,-0.3071,-0.3056,-0.3003,-0.2928,-0.2987,-0.2982,-0.2967,-0.2859,-0.2832,-0.2823,-0.2742,-0.2774,-0.277,-0.2766,-0.2764,-0.2632,-0.2632,0,0,0,0,0,0,-0.3262,-0.3237,-0.309,-0.3081,-0.3163,-0.3067,-0.3051,-0.3018,-0.2929,-0.2915,-0.2967,-0.2965,-0.2842,-0.283,-0.2818,-0.2772,-0.2769,-0.2763,-0.276,-0.2632,-0.2632,-0.2632,0,0,0,0,0,0,-0.3266,-0.3249,-0.3095,-0.3158,-0.3137,-0.3064,-0.3028,-0.3016,-0.2989,-0.2914,-0.29,-0.2954,-0.2841,-0.2826,-0.2773,-0.2766,-0.2761,-0.2756,-0.2632,-0.2632,-0.2632,-0.2679,0,0,0,0,0,0,-0.3272,-0.3251,-0.3237,-0.3158,-0.3134,-0.3052,-0.3028,-0.3013,-0.298,-0.2975,-0.2897,-0.2885,-0.284,-0.2781,-0.2767,-0.2758,-0.2752,-0.2633,-0.2632,-0.2632,-0.2677,-0.268,-0.2682,0,0,0,0,0,-0.328,-0.3255,-0.3236,-0.3219,-0.3114,-0.3052,-0.3038,-0.2987,-0.2979,-0.2965,-0.2917,-0.2887,-0.2769,-0.2777,-0.276,-0.2749,-0.2633,-0.2632,-0.2632,-0.2676,-0.268,-0.2682,0,0,0,0,0,0,-0.3334,-0.3243,-0.3222,-0.3171,-0.312,-0.3041,-0.302,-0.2992,-0.2941,-0.2939,-0.2878,-0.2861,-0.2814,-0.2776,-0.2786,-0.2712,-0.2698,-0.2695,-0.2738,-0.274,-0.2743,-0.2752,-0.2747,0,0,0,0,0,-0.334,-0.3296,-0.322,-0.3182,-0.3158,-0.3094,-0.3064,-0.303,-0.2974,-0.2952,-0.29,-0.2847,-0.2798,-0.2767,-0.2718,-0.2672,-0.2655,-0.2657,-0.2659,-0.2662,-0.2659,-0.2633,-0.2634,-0.263,-0.263,-0.263,0,0,-0.3352,-0.3297,-0.3273,-0.3192,-0.3148,-0.3105,-0.3076,-0.3031,-0.2998,-0.2945,-0.2892,-0.2853,-0.279,-0.2741,-0.2716,-0.2708,-0.2656,-0.2661,-0.2664,-0.2659,-0.2633,-0.2633,-0.2634,-0.263,-0.263,-0.263,0,0,-0.3351,-0.3305,-0.3269,-0.3227,-0.3161,-0.3119,-0.3111,-0.3037,-0.3008,-0.2955,-0.2914,-0.2875,-0.2792,-0.2749,-0.2716,-0.2702,-0.2674,-0.2688,-0.2701,-0.2676,-0.2676,-0.2676,-0.2672,-0.2671,-0.2686,-0.2686,-0.2686,0,-0.3374,-0.3307,-0.3255,-0.3212,-0.3178,-0.3129,-0.3093,-0.3054,-0.2976,-0.2953,-0.2945,-0.2841,-0.2795,-0.2736,-0.2733,-0.2707,-0.2697,-0.2696,-0.2681,-0.268,-0.2679,-0.2674,-0.2673,-0.2688,-0.2688,-0.2688,-0.2687,0,-0.3339,-0.3293,-0.3272,-0.3199,-0.3162,-0.3123,-0.3065,-0.3035,-0.3005,-0.2964,-0.2911,-0.2854,-0.2793,-0.2777,-0.2746,-0.2714,-0.2711,-0.2692,-0.2678,-0.2683,-0.2677,-0.2675,-0.2691,-0.269,-0.269,-0.2689,0,0,-0.3367,-0.3267,-0.326,-0.3226,-0.3151,-0.3115,-0.3075,-0.3016,-0.2991,-0.294,-0.2905,-0.2837,-0.282,-0.2783,-0.2747,-0.2726,-0.272,-0.271,-0.2708,-0.2714,-0.2682,-0.2696,-0.2695,-0.2701,-0.27,-0.27,-0.2687,0,-0.3356,-0.3281,-0.3234,-0.3178,-0.3135,-0.309,-0.3054,-0.3005,-0.2967,-0.2926,-0.2883,-0.2836,-0.2817,-0.2795,-0.2772,-0.2726,-0.2712,-0.2726,-0.2668,-0.2666,-0.2685,-0.2691,-0.2706,-0.2697,-0.2685,-0.2684,-0.2684,0,-0.3333,-0.3283,-0.3223,-0.3155,-0.3135,-0.3104,-0.3048,-0.3009,-0.2953,-0.2926,-0.2887,-0.2851,-0.2807,-0.2797,-0.2736,-0.2747,-0.272,-0.2694,-0.2693,-0.2685,-0.2675,-0.2684,-0.2692,-0.2691,-0.268,-0.268,-0.2681,0,-0.336,-0.3278,-0.3232,-0.3205,-0.3124,-0.3103,-0.3069,-0.3012,-0.2981,-0.2931,-0.291,-0.2856,-0.2827,-0.2786,-0.2737,-0.2735,-0.2682,-0.2668,-0.2659,-0.2661,-0.2649,-0.2651,-0.2654,-0.2633,-0.2633,-0.2633,-0.2633,0,-0.3352,-0.3318,-0.3243,-0.3215,-0.3175,-0.3122,-0.3084,-0.3045,-0.2996,-0.296,-0.2918,-0.2885,-0.2822,-0.2782,-0.2744,-0.27,-0.2687,-0.2665,-0.2655,-0.2668,-0.2671,-0.265,-0.2649,-0.2633,-0.2633,-0.2633,-0.2633,0,-0.3375,-0.3324,-0.3271,-0.3199,-0.318,-0.3154,-0.3093,-0.3064,-0.3024,-0.2979,-0.2966,-0.2903,-0.2854,-0.2801,-0.2734,-0.2708,-0.2666,-0.2652,-0.2685,-0.268,-0.2674,-0.2676,-0.2663,-0.2659,-0.2642,-0.2642,-0.2643,0,-0.3374,-0.3346,-0.3272,-0.3245,-0.3211,-0.3168,-0.3136,-0.3083,-0.3051,-0.2987,-0.2966,-0.2914,-0.2869,-0.2792,-0.2741,-0.269,-0.2674,-0.2674,-0.2666,-0.2681,-0.2675,-0.2677,-0.2674,-0.2676,-0.2676,-0.2677,-0.2677,0,-0.3376,-0.3353,-0.3308,-0.3255,-0.3218,-0.3174,-0.3128,-0.3108,-0.3046,-0.3013,-0.2963,-0.2928,-0.2861,-0.2809,-0.2752,-0.2717,-0.2687,-0.268,-0.2675,-0.2689,-0.2709,-0.2698,-0.2692,-0.268,-0.268,-0.268,-0.2679,-0.2679,-0.3387,-0.3361,-0.3305,-0.3257,-0.3217,-0.3176,-0.3146,-0.3103,-0.306,-0.3001,-0.2972,-0.2922,-0.2868,-0.2789,-0.2754,-0.2715,-0.2706,-0.2699,-0.2697,-0.2696,-0.27,-0.2716,-0.2704,-0.2704,-0.2704,-0.2704,-0.2704,0,-0.3387,-0.335,-0.3306,-0.3244,-0.3207,-0.3183,-0.3131,-0.3102,-0.3058,-0.3011,-0.2968,-0.2911,-0.2862,-0.2808,-0.2756,-0.2735,-0.272,-0.2723,-0.2723,-0.2716,-0.2711,-0.272,-0.2736,-0.2736,-0.2736,-0.2736,-0.2736,-0.2736,-0.3383,-0.3338,-0.3309,-0.3244,-0.3207,-0.3158,-0.313,-0.3092,-0.3054,-0.2993,-0.2952,-0.2917,-0.2867,-0.2812,-0.2766,-0.2751,-0.2734,-0.2741,-0.2723,-0.2719,-0.2716,-0.2714,-0.2722,-0.2738,-0.2738,-0.2731,-0.2731,-0.2731]},{"header":{"parameterUnit":"m.s-1","parameterCategory":1,"la1":30.2991,"la2":30.254,"lo1":-89.0895,"lo2":-89.0444,"dy":0.0017,"dx":0.0017,"nx":28,"ny":28,"refTime":"2024-04-24T21:00:00:Z","depth":0,"parameterNumber":3,"parameterNumberName":"V-component_of_WINDS"},"data":[0,0,0,0,0,0,0,0,0,0,0,0,0,0,0,0,0,0,0,0,0,0,0,0,0,0,0,0,0,0,0,0,0,0,0,0,0,0,0,0,0,0,0,0,0,0,0,0,0,0,0,0,0,0,0,0,0,0,4.4213,4.4213,0,4.4168,4.4168,4.4167,4.4152,4.4152,4.4153,4.4153,4.4101,4.4099,4.4097,0,0,0,0,0,0,0,0,0,0,0,0,0,4.428,4.4279,4.4213,4.4212,4.4212,4.4168,4.4168,4.4167,4.4152,4.4152,4.4153,4.4153,4.4101,4.4099,4.4097,0,0,0,0,0,0,0,0,0,0,0,0,0,4.4245,4.4279,4.4213,4.4199,4.4198,4.4168,4.4168,4.4167,4.4152,4.4152,4.4153,4.4153,4.4102,4.4099,4.4097,4.4076,0,0,4.409,4.4089,0,0,0,0,0,0,0,0,4.4247,4.4242,4.4202,4.42,4.4198,4.4166,4.4172,4.4136,4.4152,4.4169,4.4153,4.4153,4.4122,4.4118,4.4108,4.4074,4.4072,4.409,4.4088,4.4087,4.4086,0,0,0,0,0,0,0,4.4249,4.4244,4.4195,4.4201,4.4199,4.4194,4.4189,4.4165,4.4144,4.4168,4.4167,4.4162,4.4121,4.4111,4.4107,4.4071,4.409,4.4088,4.4086,4.4085,4.4017,4.4017,0,0,0,0,0,0,4.4255,4.4246,4.4197,4.4194,4.4224,4.4192,4.4187,4.4176,4.4144,4.414,4.4162,4.4161,4.4115,4.411,4.4105,4.4079,4.4087,4.4085,4.4084,4.4018,4.4017,4.4017,0,0,0,0,0,0,4.4256,4.425,4.4198,4.422,4.4213,4.4191,4.4179,4.4175,4.4165,4.414,4.4135,4.4156,4.4115,4.4109,4.4084,4.4077,4.4084,4.4082,4.4018,4.4018,4.4017,4.4027,0,0,0,0,0,0,4.4258,4.4251,4.4244,4.422,4.4212,4.418,4.4178,4.4174,4.4162,4.4161,4.4133,4.4129,4.4114,4.4088,4.4082,4.4074,4.408,4.4019,4.4018,4.4017,4.4027,4.4027,4.4027,0,0,0,0,0,4.4261,4.4247,4.4244,4.4238,4.4203,4.4179,4.4175,4.416,4.4161,4.4154,4.4137,4.413,4.4079,4.4085,4.4079,4.407,4.4019,4.4018,4.4017,4.4027,4.4027,4.4027,0,0,0,0,0,0,4.4269,4.4244,4.424,4.4218,4.4202,4.4177,4.4167,4.416,4.4141,4.4141,4.4122,4.4116,4.4093,4.4079,4.4086,4.4049,4.4048,4.4046,4.4059,4.4058,4.4058,4.4061,4.4078,0,0,0,0,0,4.4269,4.4254,4.4232,4.4215,4.4207,4.4189,4.4178,4.4169,4.4149,4.4141,4.4123,4.4103,4.4083,4.407,4.4049,4.4025,4.4019,4.4016,4.4016,4.4016,4.4014,4.4,4.3999,4.4014,4.4014,4.4014,0,0,4.4267,4.4252,4.4243,4.4216,4.4202,4.4186,4.4182,4.4164,4.4152,4.4138,4.4115,4.4101,4.4077,4.4053,4.4041,4.404,4.4008,4.4015,4.4015,4.4013,4.3999,4.3998,4.3997,4.4013,4.4014,4.4014,0,0,4.4256,4.4243,4.4229,4.4215,4.4194,4.4182,4.4179,4.4156,4.4147,4.4123,4.4113,4.4096,4.4062,4.4045,4.4033,4.4017,4.4009,4.4011,4.4009,4.3996,4.3995,4.3994,4.3988,4.3986,4.4009,4.4009,4.4009,0,4.4257,4.4233,4.4221,4.4205,4.4193,4.4182,4.4166,4.4153,4.4126,4.4117,4.4117,4.4075,4.4058,4.403,4.4027,4.4016,4.4011,4.4014,4.3996,4.3995,4.3994,4.3988,4.3986,4.4009,4.4009,4.4009,4.4009,0,4.4235,4.4218,4.4208,4.4186,4.4173,4.4156,4.414,4.4128,4.412,4.4108,4.4084,4.4064,4.404,4.4033,4.4024,4.4004,4.4004,4.4,4.4,4.3993,4.3987,4.3985,4.401,4.401,4.401,4.401,0,0,4.4227,4.4199,4.4195,4.4185,4.4162,4.4148,4.4131,4.411,4.41,4.4082,4.4066,4.4038,4.4035,4.4021,4.401,4.3999,4.3988,4.3996,4.3995,4.3995,4.3964,4.3967,4.3965,4.3983,4.3982,4.3982,4.3966,0,4.4213,4.4184,4.4173,4.4149,4.4134,4.4124,4.4109,4.4092,4.4081,4.4064,4.405,4.4031,4.4028,4.402,4.4008,4.3992,4.3981,4.3993,4.3967,4.3966,4.3973,4.3962,4.3965,4.3951,4.3964,4.3964,4.3963,0,4.4193,4.4177,4.4153,4.4133,4.4126,4.4113,4.4093,4.4078,4.4058,4.405,4.4035,4.4026,4.4006,4.4007,4.3979,4.3987,4.3976,4.3966,4.3965,4.3962,4.3964,4.3958,4.3946,4.3944,4.396,4.396,4.396,0,4.419,4.4162,4.4144,4.4136,4.4112,4.4103,4.4092,4.4074,4.4062,4.4044,4.4036,4.4015,4.4003,4.3986,4.397,4.3973,4.3944,4.3944,4.3935,4.3936,4.3929,4.393,4.3915,4.3922,4.3922,4.3922,4.3922,0,4.4175,4.4161,4.4143,4.4132,4.4115,4.4102,4.4084,4.4072,4.4056,4.4041,4.403,4.4016,4.3997,4.398,4.3967,4.3946,4.394,4.3932,4.3929,4.3933,4.3934,4.3925,4.3925,4.3922,4.3922,4.3922,4.3922,0,4.4169,4.4157,4.4136,4.4116,4.4111,4.4099,4.4081,4.4069,4.4057,4.4039,4.4033,4.4014,4.3993,4.3976,4.3948,4.394,4.3918,4.3914,4.3925,4.3923,4.3916,4.3917,4.3895,4.3891,4.3901,4.3901,4.3901,0,4.4161,4.4149,4.4129,4.412,4.411,4.4094,4.4083,4.4069,4.4058,4.4036,4.4026,4.4005,4.3988,4.3955,4.3938,4.3916,4.3912,4.3906,4.3908,4.3913,4.3911,4.3912,4.3911,4.3905,4.3905,4.3905,4.3905,0,4.4147,4.4142,4.4127,4.4111,4.4098,4.4084,4.4069,4.4061,4.4044,4.4032,4.4012,4.3999,4.3972,4.3951,4.3929,4.3915,4.3907,4.3905,4.3902,4.3905,4.3913,4.3909,4.3924,4.3905,4.3905,4.3905,4.3905,4.3905,4.4139,4.4129,4.4114,4.4098,4.4086,4.4072,4.4061,4.4048,4.4033,4.4011,4.4004,4.3983,4.3964,4.3933,4.392,4.3903,4.3902,4.3897,4.3896,4.3895,4.3896,4.3916,4.3898,4.3898,4.3898,4.3898,4.3898,0,4.4125,4.4115,4.4101,4.4082,4.4069,4.4065,4.4049,4.4038,4.4021,4.4005,4.3989,4.3966,4.3946,4.3928,4.3907,4.3896,4.3892,4.3891,4.3891,4.3889,4.3898,4.3903,4.3895,4.3895,4.3895,4.3895,4.3895,4.3895,4.4116,4.4099,4.4093,4.4069,4.4059,4.4041,4.4032,4.4019,4.4006,4.3982,4.3967,4.3956,4.3938,4.3916,4.3897,4.3892,4.3884,4.3885,4.3878,4.3887,4.3888,4.3888,4.3893,4.3883,4.3883,4.387,4.387,4.387]}]]